Powrót do katalogu

KUIPER-00034

AktywnyŁącznośćLEO
NORAD 63747·PAYLOAD·🇺🇸 United States

Wystrzelony Apr 28, 2025 z Cape Canaveral Space Force Station

Loading…

Następne Przeloty (najbliższe 24 godziny)

TLE

ŚwieżeSource: CelesTrak SupGP

Epoka: Sep 14, 2026, 22:15 UTC

1 63747C 25088Z   26257.92750000 -.00001278  00000+0 -16715-3 0  2574
2 63747  51.9017 331.3140 0000647  82.2744 313.3250 14.79964381    11

Śledź KUIPER-00034 w czasie rzeczywistym z AllMySat

Download on the App Store